| Temperature (°F) | Max | Average | Min |
|---|---|---|---|
| Max Temperature | 90 | 83.06 | 62 |
| Avg Temperature | 77.38 | 70.14 | 53.83 |
| Min Temperature | 70 | 61.71 | 44 |
| Dew Point (°F) | Max | Average | Min |
|---|---|---|---|
| Dew Point | 72 | 59.76 | 23 |
| Precipitation (in) | Max | Average | Min | Sum |
|---|---|---|---|---|
| Precipitation | 0.37 | 0.04 | 0.00 | 1.19 |
| Snowdepth | 0.00 | 0.00 | 0.00 | 0.00 |
| Wind (mph) | Max | Average | Min |
|---|---|---|---|
| Wind | 31 | 9.43 | 0 |
| Gust Wind | 55 | 2.98 | 0 |
| Sea Level Pressure (in) | Max | Average | Min |
|---|---|---|---|
| Sea Level Pressure | 30.23 | 30.02 | 29.68 |
| Date | Temperature (°F) | Dew Point (°F) | Humidity (%) | Wind Speed (mph) | Pressure (in) | Precipitation (in) | ||||||||||
|---|---|---|---|---|---|---|---|---|---|---|---|---|---|---|---|---|
| Max | Avg | Min | Max | Avg | Min | Max | Avg | Min | Max | Avg | Min | Max | Avg | Min | ||
| 3/31/2026 | 84 | 72.8 | 65 | 65 | 61.0 | 55 | 93 | 69.4 | 44 | 15 | 8.6 | 5 | 30.2 | 30.2 | 30.1 | 0.00 |
| 3/30/2026 | 83 | 72.1 | 65 | 65 | 63.5 | 61 | 90 | 75.6 | 52 | 21 | 11.0 | 5 | 30.2 | 30.2 | 30.1 | 0.04 |
| 3/29/2026 | 76 | 69.7 | 66 | 64 | 62.4 | 61 | 90 | 78.1 | 62 | 22 | 15.1 | 8 | 30.2 | 30.2 | 30.1 | 0.33 |
| 3/28/2026 | 88 | 72.2 | 66 | 66 | 63.1 | 55 | 93 | 75.7 | 35 | 26 | 13.0 | 3 | 30.2 | 30.1 | 30.0 | 0.00 |
| 3/27/2026 | 86 | 73.9 | 63 | 66 | 61.4 | 58 | 100 | 68.8 | 40 | 14 | 4.6 | 0 | 30.1 | 30.0 | 29.9 | 0.00 |
| 3/26/2026 | 84 | 73.0 | 65 | 66 | 63.4 | 59 | 97 | 74.4 | 44 | 12 | 5.7 | 0 | 30.1 | 30.0 | 30.0 | 0.00 |
| 3/25/2026 | 83 | 74.0 | 67 | 66 | 64.7 | 62 | 93 | 74.0 | 49 | 16 | 10.4 | 6 | 30.1 | 30.0 | 30.0 | 0.00 |
| 3/24/2026 | 85 | 70.1 | 62 | 66 | 62.8 | 59 | 97 | 78.9 | 53 | 21 | 9.0 | 0 | 30.0 | 30.0 | 29.9 | 0.00 |
| 3/23/2026 | 85 | 70.5 | 56 | 60 | 53.9 | 47 | 97 | 60.9 | 27 | 14 | 8.2 | 0 | 30.0 | 30.0 | 29.9 | 0.00 |
| 3/22/2026 | 85 | 70.3 | 57 | 57 | 48.8 | 44 | 87 | 50.8 | 25 | 12 | 7.2 | 3 | 30.0 | 30.0 | 29.9 | 0.00 |
| 3/21/2026 | 81 | 66.5 | 51 | 55 | 47.2 | 36 | 100 | 58.7 | 20 | 9 | 5.5 | 0 | 30.0 | 30.0 | 29.9 | 0.00 |
| 3/20/2026 | 77 | 64.3 | 54 | 55 | 49.8 | 45 | 83 | 62.5 | 33 | 16 | 12.4 | 8 | 30.1 | 30.0 | 30.0 | 0.00 |
| 3/19/2026 | 70 | 59.3 | 52 | 50 | 45.5 | 40 | 89 | 62.4 | 36 | 20 | 14.3 | 9 | 30.1 | 30.0 | 30.0 | 0.00 |
| 3/18/2026 | 70 | 56.6 | 45 | 46 | 38.8 | 32 | 66 | 52.5 | 36 | 18 | 13.4 | 6 | 30.1 | 30.1 | 30.0 | 0.00 |
| 3/17/2026 | 62 | 53.8 | 44 | 50 | 32.6 | 23 | 72 | 47.0 | 24 | 18 | 11.7 | 0 | 30.1 | 30.0 | 29.9 | 0.37 |
| 3/16/2026 | 88 | 71.8 | 59 | 72 | 65.6 | 53 | 100 | 81.7 | 53 | 31 | 15.1 | 0 | 29.9 | 29.8 | 29.7 | 0.25 |
| 3/15/2026 | 88 | 72.8 | 66 | 70 | 68.0 | 64 | 100 | 86.7 | 48 | 24 | 7.7 | 3 | 30.0 | 29.9 | 29.8 | 0.05 |
| 3/14/2026 | 84 | 73.9 | 70 | 68 | 64.6 | 62 | 90 | 73.7 | 49 | 16 | 11.0 | 7 | 30.0 | 30.0 | 29.9 | 0.00 |
| 3/13/2026 | 79 | 69.5 | 63 | 64 | 62.1 | 61 | 93 | 78.1 | 56 | 16 | 11.2 | 6 | 30.0 | 29.9 | 29.9 | 0.00 |
| 3/12/2026 | 90 | 73.1 | 66 | 68 | 65.2 | 60 | 93 | 78.1 | 40 | 20 | 9.9 | 0 | 30.0 | 29.9 | 29.8 | 0.00 |
| 3/11/2026 | 90 | 75.5 | 67 | 70 | 66.2 | 59 | 100 | 76.5 | 38 | 13 | 7.6 | 3 | 30.1 | 30.0 | 29.9 | 0.00 |
| 3/10/2026 | 90 | 77.4 | 69 | 68 | 64.5 | 60 | 90 | 67.3 | 38 | 14 | 6.5 | 0 | 30.1 | 30.1 | 30.0 | 0.00 |
| 3/9/2026 | 88 | 74.3 | 64 | 68 | 65.5 | 59 | 100 | 77.1 | 41 | 12 | 4.2 | 0 | 30.1 | 30.0 | 30.0 | 0.00 |
| 3/8/2026 | 88 | 68.5 | 63 | 68 | 67.5 | 67 | 96 | 96.0 | 96 | 5 | 5.0 | 5 | 30.0 | 30.0 | 30.0 | 0.00 |
| 3/7/2026 | 86 | 75.1 | 68 | 69 | 66.9 | 63 | 96 | 77.5 | 46 | 15 | 9.3 | 5 | 30.1 | 30.1 | 30.0 | 0.00 |
| 3/6/2026 | 87 | 75.2 | 68 | 69 | 66.8 | 63 | 100 | 77.8 | 44 | 17 | 9.5 | 3 | 30.2 | 30.1 | 30.1 | 0.00 |
| 3/5/2026 | 87 | 74.2 | 67 | 68 | 66.4 | 63 | 97 | 78.2 | 49 | 17 | 9.0 | 3 | 30.1 | 30.1 | 30.0 | 0.00 |
| 3/4/2026 | 87 | 70.1 | 66 | 67 | 63.4 | 60 | 100 | 82.2 | 46 | 18 | 8.9 | 5 | 30.2 | 30.1 | 30.1 | 0.15 |
| 3/3/2026 | 85 | 69.2 | 60 | 67 | 64.3 | 60 | 97 | 84.9 | 71 | 14 | 8.5 | 0 | 30.2 | 30.1 | 30.1 | 0.00 |
| 3/2/2026 | 76 | 69.0 | 61 | 62 | 57.8 | 52 | 97 | 71.1 | 38 | 16 | 8.1 | 0 | 30.1 | 30.1 | 30.0 | 0.00 |
| 3/1/2026 | 83 | 66.0 | 58 | 61 | 58.9 | 57 | 96 | 79.6 | 50 | 18 | 11.0 | 6 | 30.1 | 30.0 | 29.9 | 0.00 |